User: anonymous   Login
Location: Unspecified
(0.0000°N, 0.0000°E)
Time: 16:41:21
(UTC+00:00)
Language:

NANOSAT-1 - Orbit

View from above orbital plane
View from above orbital plane
View from above satellite
View from above satellite

Ground track
Ground track

The orbit data is extracted from the following two-line orbital elements,

1 28493U 04049B   24111.29289510  .00004203  00000-0  61497-3 0  9997
2 28493  98.1383 224.3649 0003064 312.0895  48.0053 14.76202224 39058
Epoch (UTC): 20 April 2024 07:01:46
Eccentricity: 0.0003064
inclination: 98.1383°
perigee height: 639 km
apogee height: 643 km
right ascension of ascending node: 224.3649°
argument of perigee: 312.0895°
revolutions per day: 14.76202224
mean anomaly at epoch: 48.0053°
orbit number at epoch: 3905

The dashed part of the orbit path shows where the satellite is in the earth's shadow,  

DLR